Tracking 29594 objects as of 20-Sep-2024
HD Live streaming from Space Station
objects crossing your sky now

FENGYUN 1C DEB

Track FENGYUN 1C DEB now!
10-day predictions


NORAD ID: 30471
Int'l Code: 1999-025AGJ
Perigee: 805.4 km
Apogee: 931.9 km
Inclination: 99.1 °
Period: 102.2 minutes
Semi major axis: 7239 km
RCS: 0.033 m2 (small)
Launch date: May 10, 1999
Source: People's Republic of China (PRC)
Launch site: Taiyaun Space Center, China (TSC)

Note: This is SATELLITE DEBRIS
Your satellite tracking list
Your tracking list is empty




NASA's NSSDC Master Catalog

Two Line Element Set (TLE):
1 30471U 99025AGJ 24262.20811942  .00006909  00000-0  38465-2 0  9995
2 30471  99.0730 339.2453 0087305  82.7172 333.4304 14.09375706901084
Source of the keplerian elements: AFSPC